PST,Max TemperatureF,Mean TemperatureF,Min TemperatureF,Max Dew PointF,MeanDew PointF,Min DewpointF,Max Humidity, Mean Humidity, Min Humidity, Max Sea Level PressureIn, Mean Sea Level PressureIn, Min Sea Level PressureIn, Max VisibilityMiles, Mean VisibilityMiles, Min VisibilityMiles, Max Wind SpeedMPH, Mean Wind SpeedMPH, Max Gust SpeedMPH,PrecipitationIn, CloudCover, Events, WindDirDegrees
2013-2-1,46,36,33,46,39,34,100,100,100,30.40,30.38,30.37,10,10,10,2,1,,0.00,5,Fog,79
2013-2-2,53,46,39,46,43,39,100,87,67,30.40,30.35,30.31,10,10,10,14,7,20,0.00,5,,87
2013-2-3,46,40,33,46,42,34,100,100,100,30.34,30.31,30.27,10,10,10,7,3,,0.00,8,,236
2013-2-4,50,44,37,46,43,37,100,95,82,30.21,30.12,30.03,10,10,10,6,2,,0.00,8,,57
2013-2-5,48,45,42,48,44,43,100,100,100,29.97,29.96,29.94,10,7,3,12,2,18,0.00,8,Rain,223
2013-2-6,46,45,42,46,45,43,100,100,100,30.12,30.07,29.99,10,10,10,5,3,,0.00,8,,76
2013-2-7,48,40,33,45,41,34,100,97,82,30.06,30.04,30.02,10,10,10,4,2,,0.00,6,,131
2013-2-8,42,35,28,39,35,28,100,93,81,30.29,30.26,30.24,10,7,0,14,5,20,0.00,4,Fog,212
2013-2-9,44,42,39,43,41,39,100,97,87,30.28,30.27,30.25,10,10,10,12,8,,0.00,8,,225
2013-2-10,46,39,32,46,40,32,100,93,87,30.36,30.33,30.31,10,10,10,13,4,18,0.00,5,,211
2013-2-11,44,42,41,45,42,41,100,95,87,30.38,30.36,30.34,10,9,5,10,8,15,0.00,8,,235
2013-2-12,50,47,44,50,47,45,100,100,100,30.45,30.43,30.40,10,5,1,13,7,,0.00,8,,223
2013-2-13,51,48,46,50,49,46,100,98,93,30.45,30.43,30.40,10,8,2,13,8,18,0.00,7,,219
2013-2-14,53,45,37,46,43,37,100,91,72,30.56,30.55,30.52,10,10,10,10,4,,0.00,8,,212
2013-2-15,55,45,35,48,43,36,100,93,72,30.47,30.40,30.27,10,10,10,12,3,17,0.00,0,,50
2013-2-16,46,39,32,46,43,32,100,100,100,30.27,30.24,30.21,10,6,2,10,5,17,0.00,8,Rain,220
2013-2-17,44,42,39,43,41,37,100,93,76,30.30,30.28,30.27,10,10,10,8,6,,0.00,8,,223
2013-2-18,48,40,32,39,36,32,100,83,66,30.04,29.98,29.89,10,10,10,6,3,,0.00,8,,237
2013-2-19,46,40,33,45,38,34,100,97,93,29.86,29.81,29.76,10,10,10,5,2,,0.00,5,Rain,120
2013-2-20,46,38,30,45,40,30,100,94,76,30.09,30.07,30.03,10,9,5,8,2,,0.00,8,Rain,228
2013-2-21,42,40,39,43,41,39,100,100,100,30.17,30.15,30.12,10,8,5,12,8,,0.00,8,Rain,237
2013-2-22,44,43,42,45,44,43,100,100,100,30.06,29.93,29.86,10,6,3,15,11,24,0.00,8,Rain,243
2013-2-23,42,40,37,43,40,37,100,100,100,30.38,30.28,30.17,10,7,4,12,8,17,0.00,8,Rain,219
2013-2-24,50,44,37,43,39,36,100,84,62,30.42,30.35,30.24,10,10,7,6,3,,0.00,7,,234
2013-2-25,42,40,37,43,41,37,100,100,100,30.28,30.20,30.11,10,7,2,15,11,21,0.00,8,Rain,226
2013-2-26,48,42,35,43,39,36,100,88,71,30.40,30.34,30.29,10,10,10,2,1,,0.00,8,,354
2013-2-27,50,44,37,48,44,37,100,93,87,30.33,30.31,30.27,10,10,7,7,3,,0.00,7,,325
2013-2-28,51,46,42,52,46,43,100,100,100,30.35,30.31,30.27,2,2,2,6,1,,0.00,8,Rain,21